Hourly Data Report for October 05, 2017

All times are specified in Local Standard Time (LST). Add 1 hour to adjust for Daylight Saving Time where and when it is observed.

CARBERRY CS
MANITOBA

49°54'20.900" N
99°21'26.800" W
383.50 m
5010547
71170
WZE

Download Data

Hourly Data (October 2017)
Hourly Data Report for October 5, 2017
Temp Definition
°C
Dew Point Temp Definition
°C
Rel Hum Definition
%
Wind Dir Definition
10's deg

Wind Spd Definition
km/h
Visibility Definition
km
Stn Press Definition
kPa
Hmdx Definition


Wind Chill Definition


Weather Definition


TIME
00:00 1.6 0.0 89 27 9   97.38     LegendNANA
01:00 -0.3 -2.7 84 29 7   97.42   -3 LegendNANA
02:00 0.5 -1.9 84 31 7   97.43     LegendNANA
03:00 0.4 -1.4 87 32 6   97.43     LegendNANA
04:00 -0.5 -2.1 89 32 5   97.45   -2 LegendNANA
05:00 -0.8 -2.6 87 29 7   97.48   -3 LegendNANA
06:00 -1.8 -2.9 92 29 4   97.49   -3 LegendNANA
07:00 -2.4 -3.3 93 30 5   97.51   -4 LegendNANA
08:00 1.9 0.5 91 33 2   97.53     LegendNANA
09:00 6.5 2.1 73 1 10   97.55     LegendNANA
10:00 8.9 1.5 60 1 5   97.56     LegendNANA
11:00 10.0 0.9 53 1 5   97.57     LegendNANA
12:00 10.9 1.1 51 27 11   97.52     LegendNANA
13:00 12.2 1.7 49 30 8   97.46     LegendNANA
14:00 12.9 0.5 43 26 9   97.40     LegendNANA
15:00 13.8 1.0 42 26 10   97.35     LegendNANA
16:00 13.9 0.5 40 26 11   97.30     LegendNANA
17:00 13.5 0.1 40 26 12   97.26     LegendNANA
18:00 11.2 0.7 48 24 5   97.25     LegendNANA
19:00 7.2 1.1 65 22 4   97.23     LegendNANA
20:00 4.7 0.9 76 22 5   97.19     LegendNANA
21:00 4.6 0.7 76 21 7   97.18     LegendNANA
22:00 4.6 0.7 75 20 9   97.17     LegendNANA
23:00 4.7 0.4 74 21 9   97.15     LegendNANA

Notes on Data Quality.

Legend

  • E = Estimated
  • M = Missing
  • NA = Not Available
  • ‡ = Partner data that is not subject to review by the National Climate Archives
Date modified: